Feng Yun 3E

operational
NORAD ID: 49008 Int'l Des: 2021-062 Owner: NSMC Country: CN
LEOCIRCULARRETROGRADESSO

Feng Yun 3Eについて

説明を読み込み中...

リアルタイム位置

3D地球を読み込み中...

次回通過

高度履歴

Altitude vs Time

uPlot chart will show altitude changes over time

軌道要素

1 49008U 21062A 26062.50091745 .00000196 00000-0 11306-3 0 9999
2 49008 98.7505 67.0837 0002481 52.7250 307.4152 14.19893192241583
Epoch: Mar 3, 2026 • Age: 38 hours

現在のステータス

高度 829.4 km
速度 7.44 km/s
衛星直下点 2.44°N, 127.16°W
打ち上げ日 Jul 4, 2021
運用期間 4.6 years
タイプ other

技術仕様

分類 Payload
質量 2450.00 kg
乾燥質量 2250.00 kg
総質量 2450.00 kg
長さ 4.40 m
直径 2.00 m
スパン 10.00 m
形状 Box + 2 Pan
製造者 SISE
バスタイプ FY-3
フェーズステータス In Orbit
所有者/国 NSMC/CN

大規模コンステレーション

Loading constellations...